CW5842 Weather Reports


time (UTC)temp
C
wind
direction
speed
KPH
gust
KPH
rain 1hr
cm
rain 24hr
cm
rain mn
cm
humidity
%
barometer
mb
20260507023037 14 0 0.0 0.0 0.00 0.03 0.03 81 1016.6
20260507022521 14 0 0.0 0.0 0.00 0.03 0.03 81 1016.5
20260507022022 14 0 0.0 0.0 0.00 0.03 0.03 81 1016.4
20260507021536 14 0 0.0 0.0 0.00 0.03 0.03 80 1016.2
20260507021021 15 0 0.0 0.0 0.00 0.03 0.03 80 1016.1
20260507020518 15 0 0.0 0.0 0.00 0.03 0.03 80 1016.1
20260507020040 15 0 0.0 0.0 0.00 0.03 0.03 79 1015.9
20260507015522 15 0 0.0 0.0 0.00 0.03 0.03 79 1015.8
20260507015018 15 0 0.0 0.0 0.00 0.03 0.03 79 1015.6
20260507014547 15 0 0.0 0.0 0.00 0.03 0.03 79 1015.5
20260507014022 15 0 0.0 0.0 0.00 0.03 0.03 78 1015.4
20260507013520 15 0 0.0 0.0 0.00 0.03 0.03 78 1015.3
20260507013037 16 0 0.0 0.0 0.00 0.03 0.03 78 1015.2
20260507012521 16 0 0.0 0.0 0.00 0.03 0.03 77 1015.1
20260507012024 16 0 0.0 0.0 0.00 0.03 0.03 77 1015.0
20260507011538 16 0 0.0 0.0 0.00 0.03 0.03 77 1014.9
20260507011018 16 0 0.0 1.6 0.00 0.03 0.03 77 1014.7
20260507010521 16 0 0.0 1.6 0.00 0.03 0.03 76 1014.6
20260507010041 16 0 0.0 1.6 0.00 0.03 0.03 76 1014.5
20260507005519 16 38 0.0 1.6 0.00 0.03 0.03 76 1014.5
20260507005020 16 38 0.0 4.8 0.00 0.03 0.03 76 1014.5
20260507004535 16 0 0.0 4.8 0.00 0.03 0.03 76 1014.4
20260507004023 16 36 1.6 6.4 0.00 0.03 0.03 75 1014.3
20260507003519 16 40 1.6 9.7 0.00 0.03 0.03 75 1014.4
20260507003039 16 49 1.6 9.7 0.00 0.03 0.03 74 1014.4
20260507002518 16 111 3.2 9.7 0.00 0.03 0.03 74 1014.4
20260507002021 16 42 1.6 6.4 0.00 0.03 0.03 74 1014.5
20260507001540 16 360 1.6 6.4 0.00 0.03 0.03 75 1014.5
20260507001020 16 53 1.6 6.4 0.00 0.03 0.03 75 1014.4
20260507000522 16 0 1.6 8.0 0.00 0.03 0.03 74 1014.5
20260507000041 16 0 3.2 9.7 0.00 0.03 0.03 74 1014.6
20260506235520 16 46 3.2 9.7 0.00 0.03 0.03 73 1014.5
20260506235019 16 15 3.2 6.4 0.00 0.03 0.03 74 1014.5
20260506234537 16 49 3.2 9.7 0.00 0.03 0.03 74 1014.4
20260506234019 16 40 4.8 9.7 0.00 0.03 0.03 74 1014.4
20260506233519 16 32 1.6 8.0 0.00 0.03 0.03 74 1014.3
20260506233042 16 15 1.6 9.7 0.00 0.03 0.03 74 1014.3
20260506232518 16 32 3.2 14.5 0.00 0.03 0.03 74 1014.4
20260506232019 16 48 6.4 17.7 0.00 0.03 0.03 74 1014.3
20260506231534 16 87 4.8 17.7 0.00 0.03 0.03 74 1014.2
20260506231018 16 53 6.4 12.9 0.00 0.03 0.03 74 1013.9
20260506230518 16 74 4.8 12.9 0.00 0.03 0.03 74 1014.1
20260506230038 17 352 3.2 12.9 0.00 0.03 0.03 73 1014.0
20260506225522 17 34 1.6 12.9 0.00 0.03 0.03 73 1014.0
20260506225022 17 36 4.8 12.9 0.00 0.03 0.03 73 1014.1
20260506224538 16 0 3.2 16.1 0.00 0.03 0.03 74 1013.9
20260506224020 16 360 3.2 16.1 0.00 0.03 0.03 73 1013.9
20260506223519 16 360 4.8 16.1 0.00 0.03 0.03 74 1013.8
20260506223037 16 0 1.6 9.7 0.00 0.03 0.03 74 1013.9
20260506222522 16 360 1.6 9.7 0.00 0.03 0.03 74 1013.9
20260506222023 16 360 0.0 9.7 0.00 0.03 0.03 74 1013.8
20260506221537 16 360 3.2 9.7 0.00 0.03 0.03 73 1013.7
20260506221026 16 360 3.2 9.7 0.00 0.03 0.03 73 1013.9
20260506220521 16 360 1.6 6.4 0.00 0.03 0.03 73 1013.9
20260506220036 16 0 0.0 8.0 0.00 0.03 0.03 74 1014.1
20260506215525 16 0 1.6 8.0 0.00 0.03 0.03 74 1013.9
20260506215023 16 360 3.2 9.7 0.00 0.03 0.03 73 1013.9
20260506214537 16 360 4.8 9.7 0.00 0.03 0.03 72 1014.0
20260506214018 16 360 0.0 8.0 0.00 0.03 0.03 73 1014.2
20260506213518 16 360 1.6 9.7 0.00 0.03 0.03 74 1014.1
20260506213038 16 360 1.6 9.7 0.00 0.03 0.03 74 1014.3
20260506212521 16 53 4.8 9.7 0.00 0.03 0.03 72 1014.2
20260506212018 16 0 1.6 14.5 0.00 0.03 0.03 73 1014.3
20260506211538 16 340 3.2 14.5 0.00 0.03 0.03 73 1014.0
20260506211022 16 45 3.2 8.0 0.00 0.03 0.03 72 1014.1
20260506210522 16 5 0.0 9.7 0.00 0.03 0.03 73 1014.1
20260506210038 16 34 3.2 9.7 0.00 0.03 0.03 73 1014.3
20260506205524 16 302 1.6 8.0 0.00 0.03 0.03 73 1014.2
20260506205021 16 279 1.6 16.1 0.00 0.03 0.03 73 1014.2
20260506204543 16 46 3.2 16.1 0.00 0.03 0.03 73 1014.1
20260506204021 16 311 3.2 17.7 0.00 0.03 0.03 73 1014.2
20260506203521 16 360 6.4 17.7 0.00 0.03 0.03 74 1014.2
20260506203037 16 19 3.2 11.3 0.00 0.03 0.03 75 1014.1
20260506202523 15 297 1.6 14.5 0.00 0.03 0.03 75 1014.4
20260506202020 15 360 3.2 14.5 0.00 0.03 0.03 75 1014.5
20260506201537 15 329 4.8 11.3 0.00 0.03 0.03 75 1014.8
20260506201021 15 314 4.8 16.1 0.00 0.03 0.03 75 1014.6
20260506200522 15 360 4.8 16.1 0.00 0.03 0.03 75 1014.6
20260506200039 15 56 3.2 12.9 0.00 0.03 0.03 75 1014.8
20260506195518 15 29 6.4 16.1 0.00 0.03 0.03 75 1015.0
20260506195018 15 5 4.8 16.1 0.00 0.03 0.03 76 1015.0
20260506194538 15 55 3.2 12.9 0.00 0.03 0.03 76 1014.7
20260506194021 15 360 1.6 19.3 0.00 0.03 0.03 78 1014.9
20260506193518 14 360 3.2 19.3 0.00 0.03 0.03 78 1014.9
20260506193037 14 360 4.8 14.5 0.00 0.03 0.03 78 1015.1
20260506192526 14 360 4.8 12.9 0.00 0.03 0.03 78 1015.1
20260506192022 13 0 3.2 12.9 0.00 0.03 0.03 79 1015.3
20260506191537 13 360 3.2 12.9 0.00 0.03 0.03 79 1015.1
20260506191021 13 360 1.6 12.9 0.00 0.03 0.03 80 1015.2
20260506190519 13 360 4.8 12.9 0.00 0.03 0.03 80 1015.2
20260506190037 13 360 1.6 9.7 0.00 0.03 0.03 81 1015.4
20260506185518 12 360 3.2 12.9 0.00 0.03 0.03 81 1015.4
20260506185019 12 9 3.2 12.9 0.00 0.03 0.03 81 1015.5
20260506184537 12 360 3.2 9.7 0.00 0.03 0.03 81 1015.6
20260506184018 12 331 3.2 9.7 0.00 0.03 0.03 81 1015.7
20260506183518 12 0 0.0 11.3 0.00 0.03 0.03 81 1015.9
20260506183039 12 360 3.2 11.3 0.00 0.03 0.03 81 1016.1
20260506182521 12 352 1.6 8.0 0.00 0.03 0.03 81 1015.9
20260506182022 12 342 1.6 12.9 0.00 0.03 0.03 81 1015.9
20260506181538 12 41 4.8 12.9 0.00 0.03 0.03 81 1016.0
20260506181022 12 5 4.8 9.7 0.00 0.03 0.03 81 1015.8
20260506180522 12 323 3.2 12.9 0.00 0.03 0.03 81 1016.1
20260506180046 12 0 1.6 12.9 0.00 0.03 0.03 81 1016.1
20260506175522 12 313 3.2 12.9 0.00 0.03 0.03 81 1016.0
20260506175023 12 326 3.2 11.3 0.00 0.03 0.03 81 1015.8
20260506174541 12 352 1.6 16.1 0.00 0.03 0.03 81 1015.6
20260506174021 12 352 1.6 16.1 0.00 0.03 0.03 82 1015.5
20260506173519 12 317 4.8 16.1 0.00 0.03 0.03 82 1014.9
20260506173039 12 0 3.2 22.5 0.00 0.03 0.03 82 1014.6
20260506172520 12 26 4.8 22.5 0.00 0.03 0.03 81 1014.6
20260506172021 12 67 4.8 16.1 0.00 0.03 0.03 81 1014.6
20260506171540 12 24 4.8 16.1 0.00 0.03 0.03 82 1014.4
20260506171018 12 350 4.8 16.1 0.00 0.03 0.03 82 1014.7
20260506170518 12 23 3.2 12.9 0.00 0.03 0.03 82 1014.6
20260506170050 12 314 1.6 14.5 0.00 0.03 0.03 82 1014.6
20260506165522 12 26 4.8 14.5 0.00 0.03 0.03 82 1014.9
20260506165018 12 19 4.8 14.5 0.00 0.03 0.03 82 1015.0
20260506164538 12 0 4.8 14.5 0.00 0.03 0.03 82 1015.2
20260506164022 12 360 1.6 11.3 0.00 0.03 0.03 82 1015.0
20260506163519 12 309 1.6 12.9 0.00 0.03 0.03 82 1014.9
20260506163056 12 15 3.2 12.9 0.00 0.03 0.03 82 1015.0
20260506162525 12 329 1.6 12.9 0.00 0.03 0.03 82 1015.0
20260506162024 12 30 1.6 16.1 0.00 0.03 0.03 82 1015.2
20260506161537 12 16 1.6 16.1 0.00 0.03 0.03 82 1015.3
20260506161021 12 360 3.2 16.1 0.00 0.03 0.03 82 1015.2
20260506160522 12 53 3.2 14.5 0.00 0.03 0.03 82 1015.3
20260506160036 12 9 1.6 14.5 0.00 0.03 0.03 82 1015.1
20260506155522 12 360 6.4 14.5 0.00 0.03 0.03 82 1015.0
20260506155018 12 360 1.6 17.7 0.00 0.03 0.03 82 1014.8
20260506154555 11 0 3.2 17.7 0.00 0.03 0.03 82 1014.9
20260506154026 11 18 6.4 12.9 0.00 0.03 0.03 82 1014.9
20260506153517 11 55 4.8 12.9 0.00 0.03 0.03 82 1015.3
20260506153049 11 303 0.0 19.3 0.00 0.03 0.03 82 1015.0
20260506152522 11 327 8.0 19.3 0.00 0.03 0.03 82 1014.6
20260506152023 11 5 3.2 19.3 0.00 0.03 0.03 82 1014.3
20260506151538 11 27 11.3 19.3 0.03 0.03 0.03 82 1014.2
20260506151021 11 16 6.4 20.9 0.03 0.03 0.03 82 1014.2
20260506150522 11 13 6.4 20.9 0.03 0.03 0.03 82 1013.8
20260506150037 11 28 6.4 16.1 0.03 0.03 0.03 82 1013.9
20260506145525 11 18 3.2 14.5 0.03 0.03 0.03 82 1015.8
20260506145021 11 323 3.2 14.5 0.03 0.03 0.03 82 1016.0
20260506144537 11 291 4.8 11.3 0.03 0.03 0.03 82 1016.2
20260506144021 11 336 3.2 11.3 0.03 0.03 0.03 82 1016.4
20260506143522 11 59 1.6 11.3 0.03 0.03 0.03 82 1015.5
20260506143046 11 332 1.6 12.9 0.03 0.03 0.03 82 1015.9
20260506142522 11 297 3.2 12.9 0.03 0.03 0.03 82 1015.7
20260506142019 11 11 3.2 12.9 0.03 0.03 0.03 82 1015.5
20260506141542 11 315 3.2 19.3 0.00 0.00 0.00 81 1015.4
20260506141021 11 9 3.2 19.3 0.00 0.00 0.00 81 1015.9
20260506140525 11 21 4.8 14.5 0.00 0.00 0.00 80 1016.4
20260506140039 11 338 3.2 14.5 0.00 0.00 0.00 80 1016.9
20260506135522 11 298 3.2 16.1 0.00 0.00 0.00 80 1015.9
20260506135022 12 298 3.2 16.1 0.00 0.00 0.00 80 1015.6
20260506134537 12 308 6.4 16.1 0.00 0.00 0.00 80 1014.4
20260506134025 12 352 4.8 19.3 0.00 0.00 0.00 80 1013.3
20260506133518 12 10 3.2 19.3 0.00 0.00 0.00 79 1014.8
20260506133039 12 344 3.2 14.5 0.00 0.00 0.00 79 1014.6
20260506132520 12 337 1.6 9.7 0.00 0.00 0.00 79 1014.6
20260506132021 12 343 3.2 11.3 0.00 0.00 0.00 79 1014.6
20260506131551 12 17 3.2 12.9 0.00 0.00 0.00 79 1014.9
20260506131023 12 333 1.6 16.1 0.00 0.00 0.00 79 1014.2
20260506130519 12 5 4.8 16.1 0.00 0.00 0.00 78 1014.1
20260506130037 12 5 3.2 12.9 0.00 0.00 0.00 78 1014.0
20260506125518 12 325 1.6 12.9 0.00 0.00 0.00 78 1013.7
20260506125018 12 15 3.2 12.9 0.00 0.00 0.00 78 1013.7
20260506124536 12 33 4.8 14.5 0.00 0.00 0.00 78 1013.5
20260506124018 12 10 3.2 14.5 0.00 0.00 0.00 77 1013.3
20260506123521 13 330 3.2 14.5 0.00 0.00 0.00 77 1013.4
20260506123038 13 40 4.8 17.7 0.00 0.00 0.00 77 1013.1
20260506122523 13 342 3.2 17.7 0.00 0.00 0.00 77 1013.2
20260506122021 13 305 3.2 17.7 0.00 0.00 0.00 77 1013.1
20260506121542 13 333 1.6 12.9 0.00 0.00 0.00 77 1013.0
20260506121022 13 292 1.6 12.9 0.00 0.00 0.00 76 1012.8
20260506120521 13 296 4.8 11.3 0.00 0.00 0.00 76 1012.8
20260506120037 13 313 1.6 11.3 0.00 0.00 0.00 76 1012.7
20260506115522 13 294 3.2 11.3 0.00 0.00 0.00 76 1012.6
20260506115021 13 24 1.6 9.7 0.00 0.00 0.00 76 1012.7
20260506114544 14 319 3.2 9.7 0.00 0.00 0.00 75 1012.7
20260506114021 14 331 1.6 14.5 0.00 0.00 0.00 76 1012.7
20260506113521 14 360 3.2 14.5 0.00 0.00 0.00 76 1012.6
20260506113036 15 352 3.2 14.5 0.00 0.00 0.00 76 1012.6
20260506112521 15 328 4.8 14.5 0.00 0.00 0.00 76 1012.8
20260506112025 15 324 1.6 8.0 0.00 0.00 0.00 77 1012.6
20260506111538 15 14 1.6 8.0 0.00 0.00 0.00 77 1012.6
20260506111022 15 329 1.6 8.0 0.00 0.00 0.00 77 1012.4
20260506110525 15 0 1.6 8.0 0.00 0.00 0.00 77 1012.5
20260506110038 15 349 1.6 12.9 0.00 0.00 0.00 77 1012.4
20260506105521 15 346 1.6 12.9 0.00 0.00 0.00 77 1012.2
20260506105022 15 320 3.2 8.0 0.00 0.00 0.00 77 1012.1
20260506104538 15 11 4.8 8.0 0.00 0.00 0.00 77 1011.8
20260506104021 15 27 1.6 8.0 0.00 0.00 0.00 77 1011.9
20260506103522 15 13 1.6 16.1 0.00 0.00 0.00 77 1011.7
20260506103037 15 339 1.6 16.1 0.00 0.00 0.00 77 1011.5
20260506102524 15 30 3.2 14.5 0.00 0.00 0.00 77 1011.4
20260506102022 15 49 4.8 14.5 0.00 0.00 0.00 77 1011.4
20260506101537 15 5 3.2 11.3 0.00 0.00 0.00 77 1011.5
20260506101021 15 24 1.6 6.4 0.00 0.00 0.00 77 1011.4
20260506100518 15 0 1.6 6.4 0.00 0.00 0.00 77 1011.4
20260506100036 15 34 1.6 6.4 0.00 0.00 0.00 77 1011.4
20260506095518 15 316 1.6 9.7 0.00 0.00 0.00 77 1011.2
20260506095022 15 336 1.6 9.7 0.00 0.00 0.00 77 1011.1
20260506094559 16 360 1.6 9.7 0.00 0.00 0.00 77 1011.2
20260506094019 16 0 0.0 6.4 0.00 0.00 0.00 77 1011.1
20260506093518 16 346 1.6 8.0 0.00 0.00 0.00 77 1010.9
20260506093038 16 15 1.6 8.0 0.00 0.00 0.00 77 1010.7
20260506092522 16 0 1.6 8.0 0.00 0.00 0.00 77 1010.7
20260506092019 16 0 1.6 9.7 0.00 0.00 0.00 77 1010.7
20260506091538 16 323 1.6 9.7 0.00 0.00 0.00 77 1010.7
20260506091021 16 322 1.6 6.4 0.00 0.00 0.00 77 1010.6
20260506090521 16 15 1.6 8.0 0.00 0.00 0.00 77 1010.8
20260506090037 16 344 0.0 12.9 0.00 0.00 0.00 77 1010.8
20260506085521 16 352 3.2 12.9 0.00 0.00 0.00 76 1010.9
20260506085020 16 46 3.2 9.7 0.00 0.00 0.00 76 1010.8
20260506084537 16 43 1.6 4.8 0.00 0.00 0.00 76 1010.8
20260506084021 16 25 1.6 9.7 0.00 0.00 0.00 77 1010.8
20260506083521 16 22 1.6 9.7 0.00 0.00 0.00 76 1010.7
20260506083037 16 5 3.2 12.9 0.00 0.00 0.00 76 1010.6
20260506082518 16 5 3.2 12.9 0.00 0.00 0.00 76 1010.6
20260506082022 16 5 1.6 8.0 0.00 0.00 0.00 76 1010.5
20260506081537 16 5 1.6 8.0 0.00 0.00 0.00 76 1010.6
20260506081020 16 49 3.2 8.0 0.00 0.00 0.00 76 1010.5
20260506080522 16 11 1.6 8.0 0.00 0.00 0.00 76 1010.6
20260506073524 17 344 1.6 8.0 0.00 0.00 0.00 76 1010.4
20260506073042 17 360 1.6 11.3 0.00 0.00 0.00 76 1010.3
20260506072521 17 0 0.0 11.3 0.00 0.00 0.00 75 1010.4
20260506072021 17 39 4.8 12.9 0.00 0.00 0.00 75 1010.2
20260506071537 17 38 4.8 12.9 0.00 0.00 0.00 75 1010.2
20260506071018 17 38 4.8 9.7 0.00 0.00 0.00 75 1010.3
20260506070521 17 15 3.2 9.7 0.00 0.00 0.00 75 1010.2
20260506062022 17 349 1.6 8.0 0.00 0.00 0.00 74 1010.1
20260506061538 17 5 1.6 6.4 0.00 0.00 0.00 73 1009.8
20260506061022 17 340 0.0 4.8 0.00 0.00 0.00 74 1010.0
20260506060520 17 352 1.6 6.4 0.00 0.00 0.00 73 1009.9
20260506051021 18 298 1.6 9.7 0.00 0.00 0.00 71 1010.1
20260506050526 18 5 1.6 9.7 0.00 0.00 0.00 71 1010.0
20260506045022 19 22 1.6 9.7 0.00 0.00 0.00 70 1009.9
20260506044545 19 11 1.6 11.3 0.00 0.00 0.00 70 1009.9
20260506044021 19 352 1.6 14.5 0.00 0.00 0.00 70 1009.6
20260506043520 19 5 3.2 16.1 0.00 0.00 0.00 70 1009.9
20260506043037 19 40 4.8 16.1 0.00 0.00 0.00 69 1009.8
20260506042521 20 19 3.2 12.9 0.00 0.00 0.00 69 1009.8
20260506042023 20 0 3.2 19.3 0.00 0.00 0.00 69 1009.9
20260506041536 20 11 4.8 19.3 0.00 0.00 0.00 69 1009.8
20260506041018 20 360 3.2 17.7 0.00 0.00 0.00 69 1009.8
20260506040522 20 0 1.6 9.7 0.00 0.00 0.00 69 1009.8
20260506040056 20 0 1.6 12.9 0.00 0.00 0.00 69 1010.1
20260506035522 20 5 4.8 12.9 0.00 0.00 0.00 68 1009.8
20260506035022 20 5 3.2 12.9 0.00 0.00 0.00 68 1009.7
20260506034558 20 5 3.2 12.9 0.00 0.00 0.00 68 1009.8
20260506034022 21 304 3.2 11.3 0.00 0.00 0.00 68 1009.7
20260506033522 21 350 3.2 12.9 0.00 0.00 0.00 68 1009.6
20260506033039 21 34 1.6 12.9 0.00 0.00 0.00 68 1009.3
20260506032522 21 5 3.2 8.0 0.00 0.00 0.00 68 1009.3
20260506032022 21 304 1.6 6.4 0.00 0.00 0.00 68 1009.1
20260506031553 21 0 1.6 6.4 0.00 0.00 0.00 68 1008.9
20260506031025 21 0 0.0 14.5 0.00 0.00 0.00 68 1008.7
20260506030522 21 0 0.0 14.5 0.00 0.00 0.00 67 1008.6
20260506030038 21 22 3.2 9.7 0.00 0.00 0.00 67 1008.6
20260506025520 21 0 1.6 8.0 0.00 0.00 0.00 67 1008.3
20260506025021 21 329 0.0 3.2 0.00 0.00 0.00 66 1008.1
20260506024537 21 0 0.0 4.8 0.00 0.00 0.00 66 1008.0
20260506024020 21 0 0.0 6.4 0.00 0.00 0.00 66 1008.1
20260506023523 21 5 1.6 6.4 0.00 0.00 0.00 66 1008.1